[{"OBJECT_NAME":"FENGYUN 1C DEB","OBJECT_ID":"1999-025DVH","EPOCH":"2026-09-12T04:01:31.109952","MEAN_MOTION":14.12781739,"ECCENTRICITY":0.0117712,"INCLINATION":98.7322,"RA_OF_ASC_NODE":237.0395,"ARG_OF_PERICENTER":330.1218,"MEAN_ANOMALY":29.3269,"EPHEMERIS_TYPE":0,"CLASSIFICATION_TYPE":"U","NORAD_CAT_ID":36232,"ELEMENT_SET_NO":999,"REV_AT_EPOCH":65596,"BSTAR":0.00018468,"MEAN_MOTION_DOT":0.00000322,"MEAN_MOTION_DDOT":0},{"OBJECT_NAME":"FENGYUN 1C DEB","OBJECT_ID":"1999-025DVK","EPOCH":"2026-08-31T09:06:23.293728","MEAN_MOTION":13.4580409,"ECCENTRICITY":0.03182917,"INCLINATION":98.9686,"RA_OF_ASC_NODE":291.3127,"ARG_OF_PERICENTER":87.4942,"MEAN_ANOMALY":276.2585,"EPHEMERIS_TYPE":0,"CLASSIFICATION_TYPE":"U","NORAD_CAT_ID":36234,"ELEMENT_SET_NO":999,"REV_AT_EPOCH":91466,"BSTAR":0.0001970575,"MEAN_MOTION_DOT":0.00000124,"MEAN_MOTION_DDOT":0},{"OBJECT_NAME":"FENGYUN 1C DEB","OBJECT_ID":"1999-025DVM","EPOCH":"2026-09-07T07:28:32.265984","MEAN_MOTION":13.8212772,"ECCENTRICITY":0.01493047,"INCLINATION":98.8211,"RA_OF_ASC_NODE":278.9048,"ARG_OF_PERICENTER":354.3375,"MEAN_ANOMALY":5.6086,"EPHEMERIS_TYPE":0,"CLASSIFICATION_TYPE":"U","NORAD_CAT_ID":36236,"ELEMENT_SET_NO":999,"REV_AT_EPOCH":63457,"BSTAR":0.00017736728,"MEAN_MOTION_DOT":0.00000167,"MEAN_MOTION_DDOT":0},{"OBJECT_NAME":"FENGYUN 1C DEB","OBJECT_ID":"1999-025DVP","EPOCH":"2026-09-11T08:37:20.648064","MEAN_MOTION":14.12460884,"ECCENTRICITY":0.0020305,"INCLINATION":98.6818,"RA_OF_ASC_NODE":222.8802,"ARG_OF_PERICENTER":222.3772,"MEAN_ANOMALY":137.5833,"EPHEMERIS_TYPE":0,"CLASSIFICATION_TYPE":"U","NORAD_CAT_ID":36238,"ELEMENT_SET_NO":999,"REV_AT_EPOCH":90866,"BSTAR":0.000042480578,"MEAN_MOTION_DOT":3.6e-7,"MEAN_MOTION_DDOT":0},{"OBJECT_NAME":"FENGYUN 1C DEB","OBJECT_ID":"1999-025DVV","EPOCH":"2026-09-09T06:40:09.532704","MEAN_MOTION":14.26727535,"ECCENTRICITY":0.004889,"INCLINATION":98.9392,"RA_OF_ASC_NODE":13.0519,"ARG_OF_PERICENTER":223.0363,"MEAN_ANOMALY":136.6989,"EPHEMERIS_TYPE":0,"CLASSIFICATION_TYPE":"U","NORAD_CAT_ID":36244,"ELEMENT_SET_NO":999,"REV_AT_EPOCH":95834,"BSTAR":0.00093316,"MEAN_MOTION_DOT":0.00002241,"MEAN_MOTION_DDOT":0},{"OBJECT_NAME":"FENGYUN 1C DEB","OBJECT_ID":"1999-025DVY","EPOCH":"2026-09-04T23:45:40.279392","MEAN_MOTION":14.34300877,"ECCENTRICITY":0.01839732,"INCLINATION":98.2648,"RA_OF_ASC_NODE":254.5065,"ARG_OF_PERICENTER":318.4948,"MEAN_ANOMALY":40.2388,"EPHEMERIS_TYPE":0,"CLASSIFICATION_TYPE":"U","NORAD_CAT_ID":36247,"ELEMENT_SET_NO":999,"REV_AT_EPOCH":74078,"BSTAR":0.00019103804,"MEAN_MOTION_DOT":0.000006,"MEAN_MOTION_DDOT":0},{"OBJECT_NAME":"FENGYUN 1C DEB","OBJECT_ID":"1999-025DWG","EPOCH":"2026-09-09T02:38:05.330688","MEAN_MOTION":14.37671641,"ECCENTRICITY":0.00644195,"INCLINATION":99.4489,"RA_OF_ASC_NODE":203.9215,"ARG_OF_PERICENTER":100.2572,"MEAN_ANOMALY":325.1422,"EPHEMERIS_TYPE":0,"CLASSIFICATION_TYPE":"U","NORAD_CAT_ID":36255,"ELEMENT_SET_NO":999,"REV_AT_EPOCH":67894,"BSTAR":0.00043290056,"MEAN_MOTION_DOT":0.00001281,"MEAN_MOTION_DDOT":0},{"OBJECT_NAME":"FENGYUN 1C DEB","OBJECT_ID":"1999-025DWK","EPOCH":"2026-09-11T09:43:31.192896","MEAN_MOTION":14.76185479,"ECCENTRICITY":0.01689351,"INCLINATION":99.0543,"RA_OF_ASC_NODE":321.931,"ARG_OF_PERICENTER":355.7106,"MEAN_ANOMALY":4.2642,"EPHEMERIS_TYPE":0,"CLASSIFICATION_TYPE":"U","NORAD_CAT_ID":36258,"ELEMENT_SET_NO":999,"REV_AT_EPOCH":94843,"BSTAR":0.00014953574,"MEAN_MOTION_DOT":0.00001227,"MEAN_MOTION_DDOT":0},{"OBJECT_NAME":"FENGYUN 1C DEB","OBJECT_ID":"1999-025DWL","EPOCH":"2026-09-09T08:40:33.413376","MEAN_MOTION":14.62465619,"ECCENTRICITY":0.00044404,"INCLINATION":98.7966,"RA_OF_ASC_NODE":38.2164,"ARG_OF_PERICENTER":173.8155,"MEAN_ANOMALY":216.4415,"EPHEMERIS_TYPE":0,"CLASSIFICATION_TYPE":"U","NORAD_CAT_ID":36259,"ELEMENT_SET_NO":999,"REV_AT_EPOCH":76092,"BSTAR":0.0016294625,"MEAN_MOTION_DOT":0.0000821,"MEAN_MOTION_DDOT":0},{"OBJECT_NAME":"FENGYUN 1C DEB","OBJECT_ID":"1999-025DWM","EPOCH":"2026-09-11T05:14:18.940992","MEAN_MOTION":14.15539575,"ECCENTRICITY":0.00157275,"INCLINATION":98.6696,"RA_OF_ASC_NODE":253.7678,"ARG_OF_PERICENTER":186.3649,"MEAN_ANOMALY":173.7328,"EPHEMERIS_TYPE":0,"CLASSIFICATION_TYPE":"U","NORAD_CAT_ID":36260,"ELEMENT_SET_NO":999,"REV_AT_EPOCH":91663,"BSTAR":0.00008709276,"MEAN_MOTION_DOT":0.00000128,"MEAN_MOTION_DDOT":0},{"OBJECT_NAME":"FENGYUN 1C DEB","OBJECT_ID":"1999-025DWN","EPOCH":"2026-09-09T00:51:33.058656","MEAN_MOTION":13.45676677,"ECCENTRICITY":0.03542896,"INCLINATION":101.3557,"RA_OF_ASC_NODE":185.0052,"ARG_OF_PERICENTER":168.2446,"MEAN_ANOMALY":192.7227,"EPHEMERIS_TYPE":0,"CLASSIFICATION_TYPE":"U","NORAD_CAT_ID":36261,"ELEMENT_SET_NO":999,"REV_AT_EPOCH":88068,"BSTAR":0.00027187713,"MEAN_MOTION_DOT":0.00000182,"MEAN_MOTION_DDOT":0},{"OBJECT_NAME":"FENGYUN 1C DEB","OBJECT_ID":"1999-025DWP","EPOCH":"2026-09-09T12:02:06.984672","MEAN_MOTION":14.28112635,"ECCENTRICITY":0.00595889,"INCLINATION":98.9274,"RA_OF_ASC_NODE":144.5598,"ARG_OF_PERICENTER":209.5333,"MEAN_ANOMALY":150.2477,"EPHEMERIS_TYPE":0,"CLASSIFICATION_TYPE":"U","NORAD_CAT_ID":36262,"ELEMENT_SET_NO":999,"REV_AT_EPOCH":93361,"BSTAR":0.00012338464,"MEAN_MOTION_DOT":0.00000266,"MEAN_MOTION_DDOT":0},{"OBJECT_NAME":"FENGYUN 1C DEB","OBJECT_ID":"1999-025DWQ","EPOCH":"2026-09-11T04:10:38.478144","MEAN_MOTION":14.48629395,"ECCENTRICITY":0.00339455,"INCLINATION":98.9797,"RA_OF_ASC_NODE":157.1396,"ARG_OF_PERICENTER":166.701,"MEAN_ANOMALY":193.5084,"EPHEMERIS_TYPE":0,"CLASSIFICATION_TYPE":"U","NORAD_CAT_ID":36263,"ELEMENT_SET_NO":999,"REV_AT_EPOCH":91926,"BSTAR":0.00084714427,"MEAN_MOTION_DOT":0.00003161,"MEAN_MOTION_DDOT":0},{"OBJECT_NAME":"FENGYUN 1C DEB","OBJECT_ID":"1999-025DWU","EPOCH":"2026-09-12T02:32:26.081952","MEAN_MOTION":14.10076162,"ECCENTRICITY":0.0125977,"INCLINATION":98.5734,"RA_OF_ASC_NODE":194.4648,"ARG_OF_PERICENTER":151.974,"MEAN_ANOMALY":277.1502,"EPHEMERIS_TYPE":0,"CLASSIFICATION_TYPE":"U","NORAD_CAT_ID":36267,"ELEMENT_SET_NO":999,"REV_AT_EPOCH":90381,"BSTAR":0.00051067,"MEAN_MOTION_DOT":0.00000931,"MEAN_MOTION_DDOT":0},{"OBJECT_NAME":"FENGYUN 1C DEB","OBJECT_ID":"1999-025DWW","EPOCH":"2026-09-10T02:30:41.639904","MEAN_MOTION":14.28030591,"ECCENTRICITY":0.02303522,"INCLINATION":99.136,"RA_OF_ASC_NODE":212.1964,"ARG_OF_PERICENTER":217.0812,"MEAN_ANOMALY":141.4262,"EPHEMERIS_TYPE":0,"CLASSIFICATION_TYPE":"U","NORAD_CAT_ID":36269,"ELEMENT_SET_NO":999,"REV_AT_EPOCH":91588,"BSTAR":0.00020886245,"MEAN_MOTION_DOT":0.00000632,"MEAN_MOTION_DDOT":0},{"OBJECT_NAME":"FENGYUN 1C DEB","OBJECT_ID":"1999-025DWZ","EPOCH":"2026-09-09T09:49:40.380096","MEAN_MOTION":14.17678247,"ECCENTRICITY":0.01667762,"INCLINATION":99.1036,"RA_OF_ASC_NODE":141.0014,"ARG_OF_PERICENTER":220.4981,"MEAN_ANOMALY":138.3685,"EPHEMERIS_TYPE":0,"CLASSIFICATION_TYPE":"U","NORAD_CAT_ID":36272,"ELEMENT_SET_NO":999,"REV_AT_EPOCH":67451,"BSTAR":0.00017001882,"MEAN_MOTION_DOT":0.00000349,"MEAN_MOTION_DDOT":0},{"OBJECT_NAME":"FENGYUN 1C DEB","OBJECT_ID":"1999-025DXA","EPOCH":"2026-09-08T11:59:00.423744","MEAN_MOTION":14.16841588,"ECCENTRICITY":0.00959855,"INCLINATION":99.5702,"RA_OF_ASC_NODE":146.7874,"ARG_OF_PERICENTER":316.6824,"MEAN_ANOMALY":42.683,"EPHEMERIS_TYPE":0,"CLASSIFICATION_TYPE":"U","NORAD_CAT_ID":36273,"ELEMENT_SET_NO":999,"REV_AT_EPOCH":70053,"BSTAR":0.00015628464,"MEAN_MOTION_DOT":0.00000276,"MEAN_MOTION_DDOT":0},{"OBJECT_NAME":"FENGYUN 1C DEB","OBJECT_ID":"1999-025DXB","EPOCH":"2026-09-03T11:33:30.180384","MEAN_MOTION":14.26364718,"ECCENTRICITY":0.0060567,"INCLINATION":99.1352,"RA_OF_ASC_NODE":336.4242,"ARG_OF_PERICENTER":190.9721,"MEAN_ANOMALY":231.1267,"EPHEMERIS_TYPE":0,"CLASSIFICATION_TYPE":"U","NORAD_CAT_ID":36274,"ELEMENT_SET_NO":999,"REV_AT_EPOCH":66756,"BSTAR":0.0013355,"MEAN_MOTION_DOT":0.00003225,"MEAN_MOTION_DDOT":0},{"OBJECT_NAME":"FENGYUN 1C DEB","OBJECT_ID":"1999-025DXF","EPOCH":"2026-09-06T12:31:27.336288","MEAN_MOTION":14.17766459,"ECCENTRICITY":0.005972,"INCLINATION":99.128,"RA_OF_ASC_NODE":180.0746,"ARG_OF_PERICENTER":251.6539,"MEAN_ANOMALY":107.8133,"EPHEMERIS_TYPE":0,"CLASSIFICATION_TYPE":"U","NORAD_CAT_ID":36278,"ELEMENT_SET_NO":999,"REV_AT_EPOCH":97270,"BSTAR":0.00015677,"MEAN_MOTION_DOT":0.00000278,"MEAN_MOTION_DDOT":0},{"OBJECT_NAME":"FENGYUN 1C DEB","OBJECT_ID":"1999-025DXG","EPOCH":"2026-09-11T03:38:46.021056","MEAN_MOTION":14.1485728,"ECCENTRICITY":0.00618136,"INCLINATION":98.5932,"RA_OF_ASC_NODE":226.6096,"ARG_OF_PERICENTER":354.8406,"MEAN_ANOMALY":5.2124,"EPHEMERIS_TYPE":0,"CLASSIFICATION_TYPE":"U","NORAD_CAT_ID":36279,"ELEMENT_SET_NO":999,"REV_AT_EPOCH":92891,"BSTAR":0.000078010919,"MEAN_MOTION_DOT":0.00000111,"MEAN_MOTION_DDOT":0},{"OBJECT_NAME":"FENGYUN 1C DEB","OBJECT_ID":"1999-025DXH","EPOCH":"2026-09-10T08:08:39.301728","MEAN_MOTION":14.10480605,"ECCENTRICITY":0.0062262,"INCLINATION":98.7454,"RA_OF_ASC_NODE":280.1099,"ARG_OF_PERICENTER":17.4565,"MEAN_ANOMALY":355.8108,"EPHEMERIS_TYPE":0,"CLASSIFICATION_TYPE":"U","NORAD_CAT_ID":36280,"ELEMENT_SET_NO":999,"REV_AT_EPOCH":90182,"BSTAR":0.00046704,"MEAN_MOTION_DOT":0.00000803,"MEAN_MOTION_DDOT":0},{"OBJECT_NAME":"FENGYUN 1C DEB","OBJECT_ID":"1999-025DXJ","EPOCH":"2026-09-08T05:18:41.308416","MEAN_MOTION":13.61653006,"ECCENTRICITY":0.0284933,"INCLINATION":99.2533,"RA_OF_ASC_NODE":164.4165,"ARG_OF_PERICENTER":137.9391,"MEAN_ANOMALY":224.401,"EPHEMERIS_TYPE":0,"CLASSIFICATION_TYPE":"U","NORAD_CAT_ID":36281,"ELEMENT_SET_NO":999,"REV_AT_EPOCH":88183,"BSTAR":0.0018441,"MEAN_MOTION_DOT":0.00001813,"MEAN_MOTION_DDOT":0},{"OBJECT_NAME":"FENGYUN 1C DEB","OBJECT_ID":"1999-025DXL","EPOCH":"2026-09-08T08:09:27.961344","MEAN_MOTION":15.21988265,"ECCENTRICITY":0.00456332,"INCLINATION":99.4232,"RA_OF_ASC_NODE":285.5285,"ARG_OF_PERICENTER":245.2434,"MEAN_ANOMALY":114.4043,"EPHEMERIS_TYPE":0,"CLASSIFICATION_TYPE":"U","NORAD_CAT_ID":36283,"ELEMENT_SET_NO":999,"REV_AT_EPOCH":70747,"BSTAR":0.0011665203,"MEAN_MOTION_DOT":0.00027378,"MEAN_MOTION_DDOT":0}]